Regional Weather Roundup
Issued by NWS

Home | Current Version | Previous Version | Graphics & Text | Print | Product List | Glossary On
Versions: 1 2 3 4 5 6 7 8 9 10 11 12 13 14 15 16 17 18 19 20 21 22 23 24 25 26 27 28 29 30 31 32 33 34 35 36 37 38 39 40 41 42 43 44 45 46 47 48 49 50
000
ASUS45 KSLC 281110
RWRUT

UTAH REGIONAL WEATHER ROUNDUP
NATIONAL WEATHER SERVICE SALT LAKE CITY UT
500 AM MDT THU AUG 28 2014

UTZ001>011-023>025-281200-

NORTHERN UTAH

CITY           SKY/WX    TMP DP  RH WIND       PRES   REMARKS
HILL AFB       NOT AVBL
LOGAN          CLEAR     52  50  93 CALM      30.22S
OGDEN          CLEAR     58  49  72 S7        30.21S
PROVO AIRPORT  CLEAR     54  46  76 CALM      30.26R
SALT LAKE CITY PTCLDY    60  53  77 SE7       30.20S
VERNAL         MOCLDY    55  53  93 CALM      30.25S
WENDOVER       CLEAR     63  46  55 NE5       30.19S
HEBER CITY     FOG       48  46  93 CALM      30.32S VSB 1/4
WEST JORDAN    CLEAR     61  54  77 S7        30.24R

$$

UTZ012>022-026-027-281200-

SOUTHERN UTAH

CITY           SKY/WX    TMP DP  RH WIND       PRES   REMARKS
BRYCE CANYON   CLEAR     41  38  89 CALM      30.41R
CEDAR CITY     CLEAR     48  44  86 CALM      30.29R
MILFORD        CLEAR     52  46  80 S3        30.25S
MOAB/CYNLANDS  PTCLDY    60  50  69 NW8       30.20S
PRICE          CLEAR     50  44  80 NE6       30.28S
ST GEORGE      SUNNY     70  45  40 S3        30.14R

$$

REGIONAL REPORTS     COLORADO/ARIZONA

CITY           SKY/WX    TMP DP  RH WIND       PRES   REMARKS
CRAIG, CO      RAIN      52  50  93 W3        30.28S FOG
GRAND JUNCTION LGT RAIN  56  55  97 E5        30.23S
RIFLE          CLOUDY    54  53  97 CALM      30.26S
MONTROSE       CLOUDY    54  50  86 SE8       30.29F
CORTEZ         CLEAR     44  43  96 CALM      30.29S
PAGE, AZ       CLEAR     66  45  46 CALM      30.20R
GRAND CANYON     N/A    N/A N/A N/A MISG        N/A
KINGMAN        CLEAR     61  41  47 CALM      30.12S
FLAGSTAFF      CLEAR     46  44  93 CALM      30.36S

$$

REGIONAL REPORTS    NEVADA/IDAHO/WYOMING

CITY           SKY/WX    TMP DP  RH WIND       PRES   REMARKS
LAS VEGAS, NV  CLEAR     79  38  22 S5        29.99S
ELY            CLEAR     44  40  85 S9        30.33S
ELKO           CLEAR     50  38  63 E3        30.24S
POCATELLO, ID  CLEAR     57  49  74 NE5       30.18S
BURLEY         CLEAR     59  48  67 S12       30.14S
EVANSTON, WY   CLEAR     47  45  93 SW8       30.35S
ROCK SPRINGS   MOCLDY    48  46  93 W9        30.29S

$$



USA.gov is the U.S. government's official web portal to all federal, state and local government web resources and services.